Content
SEND FEEDBACK

Daily
Averages
Monthly
Summary
United States of America

BOILING SPRING LAKES, NORTH CAROLINA


Home > North America > United States > North Carolina
Elevation: 20 feet     Latitude: 34 00N     Longitude: 078 01W

WEATHER
 
SELECT A DAY
Number of Records: 146,021;   Date Range: 8/21/01 - 11/22/14
 
SHARE

PRINT THIS DATA

[ ← Previous Day ]
WEATHER ALMANAC - JULY 11, 2013
[ Next Day → ]
[ °C ]   °F
Weather ElementAverageHighLow
Temperature81.6 °F86.9 °F (1:35 pm)78.1 °F (12:35 am)
Dewpoint72.5 °F74.5 °F (12:35 pm)70.9 °F (4:35 am)
Humidity73.8 %83 % (7:15 am)60 % (1:35 pm)
Barometer29.97 in30.02 in (12:35 am)29.92 in (6:35 pm)
Wind Speed10.3 mph13.8 mph (6:55 am)
Wind Gust20.7 mph (9:55 am)
Weather ElementAverage
Visibility10 mi
Wind DirectionSSW (209.7 °)

Weather ElementTotal
Precipitation---
Cooling Degree Days17.5 (Base 65)
Growing Degree Days32.5 (Base 50)
Averaged from 71 records on July 11, 2013
WEATHER CONDITIONS BREAKOUT
WIND DIRECTION BREAKOUT
WEATHER BY HOUR - JULY 11, 2013
[ °C ]   °F
Local TimeTemperatureDewpointHumidityBarometerVisibilityWind DirectionWind SpeedGust SpeedPrecipitationEventsConditions
12:35 AM78.1 °F71.6 °F80 %30.02 in10.0 miSSW (200°)4.6 mphMostly Cloudy
12:55 AM78.3 °F71.8 °F80 %30.02 in10.0 miSW (220°)4.6 mphScattered Clouds
1:15 AM78.4 °F72.0 °F80 %30.00 in10.0 miSW (230°)8.1 mphClear
1:35 AM78.3 °F71.8 °F80 %30.00 in10.0 miSW (230°)8.1 mphScattered Clouds
1:55 AM78.1 °F71.4 °F80 %30.00 in10.0 miSW (230°)8.1 mphScattered Clouds
2:15 AM78.8 °F72.0 °F79 %30.00 in10.0 miSW (230°)9.2 mphScattered Clouds
2:35 AM79.0 °F72.1 °F79 %30.00 in10.0 miSW (230°)9.2 mphScattered Clouds
2:55 AM79.3 °F72.7 °F80 %30.00 in10.0 miSW (220°)6.9 mphScattered Clouds
3:15 AM79.3 °F72.9 °F80 %29.99 in10.0 miSSW (210°)8.1 mphScattered Clouds
3:35 AM78.4 °F72.3 °F81 %29.99 in10.0 miSW (220°)11.5 mph16.1 mphScattered Clouds
3:55 AM79.3 °F71.6 °F77 %29.98 in10.0 miSW (220°)10.4 mph17.3 mphScattered Clouds
4:15 AM79.7 °F72.0 °F77 %29.98 in10.0 miSW (230°)10.4 mph17.3 mphScattered Clouds
4:35 AM79.3 °F70.9 °F75 %29.98 in10.0 miSW (230°)10.4 mphScattered Clouds
4:55 AM79.7 °F71.1 °F75 %29.99 in10.0 miSW (230°)11.5 mph17.3 mphScattered Clouds
5:15 AM79.5 °F71.4 °F76 %29.98 in10.0 miSW (230°)12.7 mph16.1 mphScattered Clouds
5:35 AM79.7 °F71.6 °F76 %29.99 in10.0 miSW (230°)12.7 mph18.4 mphScattered Clouds
5:55 AM79.7 °F71.6 °F76 %29.99 in10.0 miSW (220°)12.7 mph19.6 mphScattered Clouds
6:15 AM79.7 °F70.9 °F74 %30.00 in10.0 miSW (220°)12.7 mph17.3 mphScattered Clouds
6:35 AM79.7 °F71.2 °F75 %30.00 in10.0 miSW (220°)8.1 mph17.3 mphScattered Clouds
6:55 AM78.1 °F71.4 °F80 %30.00 in10.0 miWest (260°)13.8 mph18.4 mphMostly Cloudy
7:15 AM78.1 °F72.7 °F83 %30.00 in10.0 miSW (220°)10.4 mphScattered Clouds
7:35 AM78.6 °F72.3 °F81 %30.00 in10.0 miSW (230°)12.7 mph19.6 mphScattered Clouds
7:55 AM79.5 °F72.5 °F79 %30.00 in10.0 miSSW (200°)10.4 mph17.3 mphScattered Clouds
8:15 AM79.7 °F72.5 °F79 %30.01 in10.0 miSW (230°)9.2 mphScattered Clouds
8:35 AM81.9 °F72.5 °F73 %30.01 in10.0 miSW (220°)12.7 mph18.4 mphScattered Clouds
8:55 AM81.7 °F72.1 °F73 %30.01 in10.0 miSW (230°)12.7 mph19.6 mphScattered Clouds
9:15 AM84.4 °F73.2 °F69 %30.01 in10.0 miSW (220°)13.8 mph18.4 mphScattered Clouds
9:35 AM84.0 °F72.7 °F69 %30.01 in10.0 miSW (230°)11.5 mph18.4 mphScattered Clouds
9:55 AM84.4 °F72.9 °F68 %30.00 in10.0 miSW (230°)11.5 mph20.7 mphScattered Clouds
10:15 AM85.1 °F73.0 °F67 %30.01 in10.0 miSW (230°)12.7 mphScattered Clouds
10:35 AM83.5 °F73.0 °F71 %30.00 in10.0 miWSW (240°)12.7 mphScattered Clouds
10:55 AM83.8 °F73.2 °F70 %30.00 in10.0 miSW (230°)10.4 mph16.1 mphScattered Clouds
11:15 AM86.4 °F73.6 °F66 %30.01 in10.0 miSW (230°)12.7 mph16.1 mphScattered Clouds
11:35 AM79.3 °F71.1 °F76 %30.01 in10.0 miSSW (200°)9.2 mphScattered Clouds
11:55 AM80.2 °F72.3 °F77 %30.01 in10.0 miSouth (180°)8.1 mphScattered Clouds
12:15 PM79.9 °F72.3 °F78 %30.00 in10.0 miSouth (180°)6.9 mphRainLight Rain
12:35 PM83.5 °F74.5 °F74 %30.00 in10.0 miSouth (180°)9.2 mphClear
12:55 PM85.3 °F74.1 °F69 %30.00 in10.0 miSSW (200°)9.2 mphClear
1:15 PM86.2 °F73.8 °F66 %29.99 in10.0 miSSW (210°)9.2 mphClear
1:35 PM86.9 °F71.6 °F60 %29.98 in10.0 miSSW (210°)9.2 mphClear
1:55 PM86.4 °F72.1 °F62 %29.98 in10.0 miSSW (200°)10.4 mph16.1 mphClear
2:15 PM86.5 °F72.7 °F63 %29.97 in10.0 miSouth (190°)11.5 mph18.4 mphClear
2:35 PM86.4 °F72.1 °F62 %29.97 in10.0 miSSW (210°)13.8 mph20.7 mphClear
2:55 PM85.3 °F72.5 °F65 %29.96 in10.0 miSouth (190°)12.7 mph18.4 mphClear
3:15 PM85.8 °F72.3 °F64 %29.96 in10.0 miSSW (200°)12.7 mph18.4 mphClear
3:35 PM86.2 °F72.9 °F64 %29.95 in10.0 miSouth (190°)11.5 mph18.4 mphClear
3:55 PM85.3 °F73.6 °F68 %29.94 in10.0 miSouth (180°)11.5 mph19.6 mphClear
4:15 PM85.6 °F73.9 °F68 %29.93 in10.0 miSSW (200°)11.5 mph18.4 mphClear
4:35 PM85.1 °F72.9 °F67 %29.93 in10.0 miSouth (180°)9.2 mph18.4 mphScattered Clouds
4:55 PM83.5 °F73.8 °F72 %29.93 in10.0 miSouth (180°)11.5 mph17.3 mphScattered Clouds
5:15 PM84.6 °F73.6 °F69 %29.93 in10.0 miSouth (190°)12.7 mph18.4 mphScattered Clouds
5:35 PM83.8 °F73.0 °F70 %29.93 in10.0 miSouth (180°)10.4 mph19.6 mphScattered Clouds
5:55 PM83.3 °F72.7 °F70 %29.93 in10.0 miSouth (190°)10.4 mph17.3 mphScattered Clouds
6:15 PM82.9 °F72.9 °F71 %29.93 in10.0 miSSW (200°)9.2 mphScattered Clouds
6:35 PM82.9 °F72.9 °F71 %29.92 in10.0 miSSW (200°)12.7 mph19.6 mphMostly Cloudy
6:55 PM82.2 °F73.0 °F74 %29.93 in10.0 miSSW (200°)8.1 mph19.6 mphScattered Clouds
7:15 PM81.3 °F72.3 °F74 %29.93 in10.0 miSouth (190°)9.2 mphScattered Clouds
7:35 PM81.1 °F72.7 °F75 %29.93 in10.0 miSSW (200°)10.4 mph17.3 mphMostly Cloudy
7:55 PM81.0 °F73.0 °F77 %29.93 in10.0 miSouth (190°)10.4 mph17.3 mphScattered Clouds
8:15 PM80.2 °F72.5 °F77 %29.92 in10.0 miSouth (190°)8.1 mph16.1 mphScattered Clouds
8:35 PM80.1 °F72.5 °F78 %29.93 in10.0 miSSW (210°)8.1 mph17.3 mphScattered Clouds
8:55 PM80.1 °F72.5 °F78 %29.94 in10.0 miSSW (200°)10.4 mph17.3 mphMostly Cloudy
9:15 PM80.1 °F72.1 °F77 %29.93 in10.0 miSSW (200°)8.1 mph18.4 mphScattered Clouds
9:35 PM79.9 °F72.5 °F78 %29.93 in10.0 miSSW (210°)9.2 mphScattered Clouds
9:55 PM80.1 °F72.7 °F78 %29.94 in10.0 miSSW (200°)10.4 mph16.1 mphMostly Cloudy
10:15 PM80.2 °F72.5 °F77 %29.95 in10.0 miSSW (200°)11.5 mph18.4 mphMostly Cloudy
10:35 PM80.2 °F72.1 °F76 %29.95 in10.0 miSSW (200°)10.4 mph19.6 mphMostly Cloudy
10:55 PM80.2 °F72.5 °F77 %29.95 in10.0 miSSW (200°)10.4 mph16.1 mphScattered Clouds
11:15 PM80.2 °F72.5 °F77 %29.95 in10.0 miSSW (200°)8.1 mph17.3 mphScattered Clouds
11:35 PM80.2 °F72.1 °F76 %29.95 in10.0 miSSW (210°)10.4 mph19.6 mphScattered Clouds
11:55 PM80.2 °F73.0 °F79 %29.95 in10.0 miSSW (200°)10.4 mph18.4 mphMostly Cloudy
Hourly data recorded from KSUT, located miles away from Boiling Spring Lakes, North Carolina







STORIES FROM OUR PARTNERS